PP5CFL-13 Weather Reports


Display with metric or nautical units.
time (UTC)temp
F
wind
direction
speed
MPH
gust
MPH
rain 1hr
in
rain 24hr
in
rain mn
in
humidity
%
barometer
mb
20260904235241 68 0.0 0.0 0.00 0.00 0.00 60 1019.6
20260904234741 69 0.0 0.0 0.00 0.00 0.00 60 1019.3
20260904234241 69 0.0 0.0 0.00 0.00 0.00 59 1019.6
20260904233741 69 0.0 0.0 0.00 0.00 0.00 60 1019.5
20260904233241 69 0.0 0.0 0.00 0.00 0.00 59 1019.5
20260904232741 68 0.0 0.0 0.00 0.00 0.00 60 1019.5
20260904232241 69 0.0 0.0 0.00 0.00 0.00 60 1019.6
20260904231741 69 0.0 0.0 0.00 0.00 0.00 60 1019.6
20260904231241 68 0.0 0.0 0.00 0.00 0.00 60 1019.4
20260904230741 67 0.0 0.0 0.00 0.00 0.00 63 1019.5
20260904230241 67 0.0 0.0 0.00 0.00 0.00 63 1019.6
20260904225741 67 0.0 0.0 0.00 0.00 0.00 63 1019.6
20260904225241 67 0.0 0.0 0.00 0.00 0.00 63 1019.4
20260904224741 67 0.0 0.0 0.00 0.00 0.00 63 1019.4
20260904224241 67 0.0 0.0 0.00 0.00 0.00 63 1019.3
20260904223741 67 0.0 0.0 0.00 0.00 0.00 63 1019.3
20260904223241 67 0.0 0.0 0.00 0.00 0.00 63 1019.1
20260904222743 67 0.0 0.0 0.00 0.00 0.00 63 1019.1
20260904222241 67 0.0 0.0 0.00 0.00 0.00 63 1019.0
20260904221741 67 0.0 0.0 0.00 0.00 0.00 62 1018.9
20260904221241 67 0.0 0.0 0.00 0.00 0.00 63 1018.9
20260904220741 67 0.0 0.0 0.00 0.00 0.00 63 1018.9
20260904220241 67 0.0 0.0 0.00 0.00 0.00 63 1018.8
20260904215741 67 0.0 0.0 0.00 0.00 0.00 63 1018.7
20260904215241 67 0.0 0.0 0.00 0.00 0.00 63 1018.7
20260904214741 67 0.0 0.0 0.00 0.00 0.00 64 1018.8
20260904214241 67 0.0 0.0 0.00 0.00 0.00 64 1019.1
20260904213741 67 0.0 0.0 0.00 0.00 0.00 64 1018.8
20260904213241 67 0.0 0.0 0.00 0.00 0.00 64 1018.8
20260904212741 67 0.0 0.0 0.00 0.00 0.00 63 1018.8
20260904212241 67 0.0 0.0 0.00 0.00 0.00 63 1018.7
20260904211741 67 0.0 0.0 0.00 0.00 0.00 63 1018.9
20260904211241 67 0.0 0.0 0.00 0.00 0.00 63 1018.5
20260904210741 67 0.0 0.0 0.00 0.00 0.00 63 1018.8
20260904210241 67 0.0 0.0 0.00 0.00 0.00 62 1018.8
20260904205741 67 0.0 0.0 0.00 0.00 0.00 62 1018.7
20260904205241 67 0.0 0.0 0.00 0.00 0.00 62 1018.5
20260904204741 67 0.0 0.0 0.00 0.00 0.00 62 1018.4
20260904204241 68 0.0 0.0 0.00 0.00 0.00 62 1018.3
20260904203741 68 0.0 0.0 0.00 0.00 0.00 62 1018.3
20260904203241 68 0.0 0.0 0.00 0.00 0.00 62 1018.2
20260904202741 68 0.0 0.0 0.00 0.00 0.00 62 1018.4
20260904202241 68 0.0 0.0 0.00 0.00 0.00 61 1018.4
20260904201741 68 0.0 0.0 0.00 0.00 0.00 61 1018.4
20260904201241 68 0.0 0.0 0.00 0.00 0.00 61 1018.4
20260904200741 68 0.0 0.0 0.00 0.00 0.00 61 1018.3
20260904200241 68 0.0 0.0 0.00 0.00 0.00 60 1018.2
20260904195741 68 0.0 0.0 0.00 0.00 0.00 59 1018.5
20260904195241 68 0.0 0.0 0.00 0.00 0.00 58 1018.5
20260904194741 68 0.0 0.0 0.00 0.00 0.00 57 1018.5
20260904194241 67 0.0 0.0 0.00 0.00 0.00 56 1018.5
20260904193741 68 0.0 0.0 0.00 0.00 0.00 55 1018.3
20260904193241 68 0.0 0.0 0.00 0.00 0.00 55 1018.1
20260904192741 68 0.0 0.0 0.00 0.00 0.00 53 1018.1
20260904192241 68 0.0 0.0 0.00 0.00 0.00 53 1017.9
20260904191741 68 0.0 0.0 0.00 0.00 0.00 56 1017.8
20260904191241 68 0.0 0.0 0.00 0.00 0.00 56 1017.6
20260904190741 68 0.0 0.0 0.00 0.00 0.00 56 1017.7
20260904190241 68 0.0 0.0 0.00 0.00 0.00 56 1017.5
20260904185741 68 0.0 0.0 0.00 0.00 0.00 58 1017.5
20260904185241 68 0.0 0.0 0.00 0.00 0.00 58 1017.1
20260904184741 68 0.0 0.0 0.00 0.00 0.00 58 1017.0
20260904184241 68 0.0 0.0 0.00 0.00 0.00 57 1017.1
20260904183741 68 0.0 0.0 0.00 0.00 0.00 57 1017.1
20260904183241 68 0.0 0.0 0.00 0.00 0.00 57 1016.9
20260904182741 68 0.0 0.0 0.00 0.00 0.00 56 1016.8
20260904182241 68 0.0 0.0 0.00 0.00 0.00 57 1016.8
20260904181741 68 0.0 0.0 0.00 0.00 0.00 58 1016.9
20260904181241 68 0.0 0.0 0.00 0.00 0.00 60 1016.8
20260904180741 68 0.0 0.0 0.00 0.00 0.00 60 1016.9
20260904180241 68 0.0 0.0 0.00 0.00 0.00 62 1016.9
20260904175741 69 0.0 0.0 0.00 0.00 0.00 63 1017.0
20260904175241 68 0.0 0.0 0.00 0.00 0.00 63 1016.9
20260904174741 69 0.0 0.0 0.00 0.00 0.00 65 1017.1
20260904174241 69 0.0 0.0 0.00 0.00 0.00 65 1017.0
20260904173741 69 0.0 0.0 0.00 0.00 0.00 65 1017.0
20260904173241 69 0.0 0.0 0.00 0.00 0.00 65 1017.1
20260904172741 69 0.0 0.0 0.00 0.00 0.00 66 1017.0
20260904172241 69 0.0 0.0 0.00 0.00 0.00 66 1016.8
20260904171741 69 0.0 0.0 0.00 0.00 0.00 66 1016.8
20260904171241 69 0.0 0.0 0.00 0.00 0.00 66 1016.9
20260904170741 69 0.0 0.0 0.00 0.00 0.00 66 1017.1
20260904170241 69 0.0 0.0 0.00 0.00 0.00 66 1016.8
20260904165741 69 0.0 0.0 0.00 0.00 0.00 67 1016.8
20260904165241 69 0.0 0.0 0.00 0.00 0.00 67 1016.8
20260904164741 69 0.0 0.0 0.00 0.00 0.00 67 1016.7
20260904164241 69 0.0 0.0 0.00 0.00 0.00 68 1016.9
20260904163741 69 0.0 0.0 0.00 0.00 0.00 68 1017.0
20260904163240 69 0.0 0.0 0.00 0.00 0.00 67 1017.1
20260904162741 69 0.0 0.0 0.00 0.00 0.00 67 1017.1
20260904162241 69 0.0 0.0 0.00 0.00 0.00 67 1017.2
20260904161741 69 0.0 0.0 0.00 0.00 0.00 67 1017.0
20260904161241 69 0.0 0.0 0.00 0.00 0.00 67 1017.1
20260904160740 69 0.0 0.0 0.00 0.00 0.00 67 1017.2
20260904160241 69 0.0 0.0 0.00 0.00 0.00 67 1017.2
20260904155740 69 0.0 0.0 0.00 0.00 0.00 67 1017.2
20260904155241 69 0.0 0.0 0.00 0.00 0.00 66 1017.5
20260904154741 69 0.0 0.0 0.00 0.00 0.00 66 1017.5
20260904154241 70 0.0 0.0 0.00 0.00 0.00 64 1017.2
20260904153742 69 0.0 0.0 0.00 0.00 0.00 68 1017.6
20260904153241 69 0.0 0.0 0.00 0.00 0.00 69 1017.7
20260904152740 69 0.0 0.0 0.00 0.00 0.00 70 1017.7
20260904152241 69 0.0 0.0 0.00 0.00 0.00 69 1017.8
20260904151740 69 0.0 0.0 0.00 0.00 0.00 71 1017.8
20260904151240 69 0.0 0.0 0.00 0.00 0.00 71 1017.3
20260904150740 69 0.0 0.0 0.00 0.00 0.00 71 1016.9
20260904150241 69 0.0 0.0 0.00 0.00 0.00 71 1017.1
20260904145740 69 0.0 0.0 0.00 0.00 0.00 71 1017.1
20260904145240 69 0.0 0.0 0.00 0.00 0.00 71 1017.6
20260904144741 69 0.0 0.0 0.00 0.00 0.00 72 1017.8
20260904144240 68 0.0 0.0 0.00 0.00 0.00 72 1017.9
20260904143740 68 0.0 0.0 0.00 0.00 0.00 72 1017.9
20260904143240 68 0.0 0.0 0.00 0.00 0.00 73 1017.9
20260904142740 68 0.0 0.0 0.00 0.00 0.00 73 1018.0
20260904142241 69 0.0 0.0 0.00 0.00 0.00 73 1018.1
20260904141740 69 0.0 0.0 0.00 0.00 0.00 73 1018.0
20260904141240 69 0.0 0.0 0.00 0.00 0.00 74 1018.0
20260904140740 68 0.0 0.0 0.00 0.00 0.00 74 1018.0
20260904140240 68 0.0 0.0 0.00 0.00 0.00 74 1018.2
20260904135740 68 0.0 0.0 0.00 0.00 0.00 74 1018.1
20260904135240 68 0.0 0.0 0.00 0.00 0.00 75 1018.4
20260904134746 68 0.0 0.0 0.00 0.00 0.00 75 1018.5
20260904134240 68 0.0 0.0 0.00 0.00 0.00 75 1018.5
20260904133740 68 0.0 0.0 0.00 0.00 0.00 76 1018.6
20260904133240 68 0.0 0.0 0.00 0.00 0.00 76 1018.8
20260904132740 68 0.0 0.0 0.00 0.00 0.00 76 1018.7
20260904132240 69 0.0 0.0 0.00 0.00 0.00 76 1018.6
20260904131740 69 0.0 0.0 0.00 0.00 0.00 76 1018.4
20260904131240 69 0.0 0.0 0.00 0.00 0.00 75 1018.4
20260904130740 69 0.0 0.0 0.00 0.00 0.00 75 1018.5
20260904130240 68 0.0 0.0 0.00 0.00 0.00 76 1018.7
20260904125740 68 0.0 0.0 0.00 0.00 0.00 75 1018.8
20260904125240 68 0.0 0.0 0.00 0.00 0.00 75 1018.7
20260904124740 68 0.0 0.0 0.00 0.00 0.00 74 1018.8
20260904124240 68 0.0 0.0 0.00 0.00 0.00 75 1018.7
20260904123740 68 0.0 0.0 0.00 0.00 0.00 74 1018.8
20260904123240 68 0.0 0.0 0.00 0.00 0.00 75 1018.9
20260904122740 68 0.0 0.0 0.00 0.00 0.00 75 1019.0
20260904122240 68 0.0 0.0 0.00 0.00 0.00 75 1019.0
20260904121740 68 0.0 0.0 0.00 0.00 0.00 74 1019.0
20260904121240 68 0.0 0.0 0.00 0.00 0.00 74 1018.9
20260904120740 68 0.0 0.0 0.00 0.00 0.00 73 1018.8
20260904120240 68 0.0 0.0 0.00 0.00 0.00 72 1018.7
20260904115740 68 0.0 0.0 0.00 0.00 0.00 73 1018.9
20260904115240 68 0.0 0.0 0.00 0.00 0.00 73 1018.8
20260904114740 67 0.0 0.0 0.00 0.00 0.00 73 1018.5
20260904114240 67 0.0 0.0 0.00 0.00 0.00 73 1018.5
20260904113740 68 0.0 0.0 0.00 0.00 0.00 73 1018.4
20260904113240 67 0.0 0.0 0.00 0.00 0.00 73 1018.4
20260904112740 67 0.0 0.0 0.00 0.00 0.00 73 1018.3
20260904112240 68 0.0 0.0 0.00 0.00 0.00 73 1018.3
20260904111740 68 0.0 0.0 0.00 0.00 0.00 73 1018.0
20260904111240 67 0.0 0.0 0.00 0.00 0.00 74 1018.0
20260904110740 67 0.0 0.0 0.00 0.00 0.00 74 1018.0
20260904110240 68 0.0 0.0 0.00 0.00 0.00 74 1017.9
20260904105740 68 0.0 0.0 0.00 0.00 0.00 74 1017.8
20260904105240 68 0.0 0.0 0.00 0.00 0.00 73 1017.8
20260904104740 68 0.0 0.0 0.00 0.00 0.00 74 1017.7
20260904104240 67 0.0 0.0 0.00 0.00 0.00 73 1017.7
20260904103740 68 0.0 0.0 0.00 0.00 0.00 73 1017.8
20260904103240 67 0.0 0.0 0.00 0.00 0.00 74 1017.7
20260904102740 68 0.0 0.0 0.00 0.00 0.00 74 1017.7
20260904102241 67 0.0 0.0 0.00 0.00 0.00 74 1017.7
20260904101740 67 0.0 0.0 0.00 0.00 0.00 75 1017.6
20260904101240 68 0.0 0.0 0.00 0.00 0.00 76 1017.6
20260904100740 68 0.0 0.0 0.00 0.00 0.00 76 1017.5
20260904100256 68 0.0 0.0 0.00 0.00 0.00 76 1017.4
20260904095819 68 0.0 0.0 0.00 0.00 0.00 77 1017.6
20260904095343 67 0.0 0.0 0.00 0.00 0.00 77 1017.5
20260904094907 67 0.0 0.0 0.00 0.00 0.00 77 1017.3
20260904094241 68 0.0 0.0 0.00 0.00 0.00 78 1017.4
20260904092740 68 0.0 0.0 0.00 0.00 0.00 80 1017.1
20260904092240 68 0.0 0.0 0.00 0.00 0.00 81 1017.2
20260904091740 68 0.0 0.0 0.00 0.00 0.00 82 1017.0
20260904091240 68 0.0 0.0 0.00 0.00 0.00 82 1016.9
20260904090740 68 0.0 0.0 0.00 0.00 0.00 82 1016.9
20260904090240 68 0.0 0.0 0.00 0.00 0.00 82 1016.8
20260904085756 68 0.0 0.0 0.00 0.00 0.00 83 1016.6
20260904085240 68 0.0 0.0 0.00 0.00 0.00 83 1016.3
20260904084740 68 0.0 0.0 0.00 0.00 0.00 83 1016.3
20260904084240 68 0.0 0.0 0.00 0.00 0.00 84 1016.3
20260904083740 68 0.0 0.0 0.00 0.00 0.00 84 1016.4
20260904083240 68 0.0 0.0 0.00 0.00 0.00 84 1016.3
20260904082251 68 0.0 0.0 0.00 0.00 0.00 85 1016.2
20260904081242 68 0.0 0.0 0.00 0.00 0.00 85 1016.1
20260904080740 68 0.0 0.0 0.00 0.00 0.00 85 1015.9
20260904080240 68 0.0 0.0 0.00 0.00 0.00 85 1015.8
20260904075741 68 0.0 0.0 0.00 0.00 0.00 85 1015.7
20260904074240 68 0.0 0.0 0.00 0.00 0.00 86 1015.3
20260904073740 68 0.0 0.0 0.00 0.00 0.00 86 1015.3
20260904073240 68 0.0 0.0 0.00 0.00 0.00 85 1015.3
20260904072740 69 0.0 0.0 0.00 0.00 0.00 85 1015.2
20260904072240 69 0.0 0.0 0.00 0.00 0.00 85 1015.0
20260904071740 69 0.0 0.0 0.00 0.00 0.00 85 1015.0
20260904070740 69 0.0 0.0 0.00 0.00 0.00 85 1015.2
20260904070240 68 0.0 0.0 0.00 0.00 0.00 85 1015.1
20260904064740 68 0.0 0.0 0.00 0.00 0.00 85 1015.2
20260904063826 68 0.0 0.0 0.00 0.00 0.00 85 1015.2
20260904063240 69 0.0 0.0 0.00 0.00 0.00 84 1015.1
20260904062740 69 0.0 0.0 0.00 0.00 0.00 84 1015.1
20260904062240 69 0.0 0.0 0.00 0.00 0.00 84 1015.0
20260904061740 69 0.0 0.0 0.00 0.00 0.00 84 1015.0
20260904061240 69 0.0 0.0 0.00 0.00 0.00 84 1015.0
20260904060740 69 0.0 0.0 0.00 0.00 0.00 84 1014.9
20260904060240 69 0.0 0.0 0.00 0.00 0.00 85 1014.8
20260904055740 69 0.0 0.0 0.00 0.00 0.00 86 1014.8
20260904054240 69 0.0 0.0 0.00 0.00 0.00 91 1014.7
20260904053740 69 0.0 0.0 0.00 0.00 0.00 91 1014.9
20260904053240 69 0.0 0.0 0.00 0.00 0.00 90 1015.0
20260904052740 69 0.0 0.0 0.00 0.00 0.00 91 1014.7
20260904052242 69 0.0 0.0 0.00 0.00 0.00 91 1015.0
20260904051740 69 0.0 0.0 0.00 0.00 0.00 91 1015.0
20260904051240 69 0.0 0.0 0.00 0.00 0.00 91 1014.9
20260904050745 69 0.0 0.0 0.00 0.00 0.00 91 1014.5
20260904045746 69 0.0 0.0 0.00 0.00 0.00 90 1014.6
20260904044740 69 0.0 0.0 0.00 0.00 0.00 90 1014.6
20260904043740 69 0.0 0.0 0.00 0.00 0.00 90 1014.8
20260904042740 69 0.0 0.0 0.00 0.00 0.00 90 1014.9
20260904042240 69 0.0 0.0 0.00 0.00 0.00 90 1014.8
20260904040740 70 0.0 0.0 0.00 0.00 0.00 89 1014.7
20260904035740 70 0.0 0.0 0.00 0.00 0.00 89 1014.8
20260904035240 70 0.0 0.0 0.00 0.00 0.00 88 1014.8
20260904034415 70 0.0 0.0 0.00 0.00 0.00 89 1014.9
20260904033740 70 0.0 0.0 0.00 0.00 0.00 89 1014.9
20260904033240 70 0.0 0.0 0.00 0.00 0.00 88 1014.8
20260904032740 70 0.0 0.0 0.00 0.00 0.00 88 1014.9
20260904032240 70 0.0 0.0 0.00 0.00 0.00 88 1015.0
20260904031740 70 0.0 0.0 0.00 0.00 0.00 88 1015.0
20260904030240 70 0.0 0.0 0.00 0.00 0.00 88 1015.1
20260904025740 70 0.0 0.0 0.00 0.00 0.00 88 1015.3
20260904025240 70 0.0 0.0 0.00 0.00 0.00 88 1015.3
20260904024740 70 0.0 0.0 0.00 0.00 0.00 88 1015.3
20260904023740 70 0.0 0.0 0.00 0.00 0.00 88 1015.3
20260904023240 70 0.0 0.0 0.00 0.00 0.00 88 1015.4
20260904022740 70 0.0 0.0 0.00 0.00 0.00 88 1015.4
20260904022240 70 0.0 0.0 0.00 0.00 0.00 88 1015.4
20260904021740 70 0.0 0.0 0.00 0.00 0.00 87 1015.5
20260904021240 70 0.0 0.0 0.00 0.00 0.00 87 1015.4
20260904015802 70 0.0 0.0 0.00 0.00 0.00 86 1015.3
20260904015240 70 0.0 0.0 0.00 0.00 0.00 86 1015.3
20260904014240 70 0.0 0.0 0.00 0.00 0.00 86 1015.3
20260904013740 70 0.0 0.0 0.00 0.00 0.00 86 1015.6
20260904013240 71 0.0 0.0 0.00 0.00 0.00 86 1015.6
20260904012740 71 0.0 0.0 0.00 0.00 0.00 85 1015.7
20260904011856 71 0.0 0.0 0.00 0.00 0.00 85 1015.7
20260904011240 71 0.0 0.0 0.00 0.00 0.00 84 1015.9
20260904010740 71 0.0 0.0 0.00 0.00 0.00 84 1015.8
20260904005748 71 0.0 0.0 0.00 0.00 0.00 84 1015.9
20260904005235 71 0.0 0.0 0.00 0.00 0.00 84 1015.9
20260904002740 73 0.0 0.0 0.00 0.00 0.00 83 1015.9
20260904002240 73 0.0 0.0 0.00 0.00 0.00 83 1016.1
20260904001740 73 0.0 0.0 0.00 0.00 0.00 82 1016.0
20260904000740 74 0.0 0.0 0.00 0.00 0.00 80 1016.1
20260904000241 74 0.0 0.0 0.00 0.00 0.00 81 1016.1
20260903235742 73 0.0 0.0 0.00 0.00 0.00 83 1016.1